Simultaneous Nadir Overpasses (SNOs) Predictions

Prediction of SNOs between FY3D and TERRA Satellite Orbit:

Table of predicted SNOs for the next 14.0 days since TLE Epoch: 4/12/2025
Index Date (FY3D) Time (FY3D) Lat,Lon (FY3D) SZA (FY3D ) Date (TERRA) Time (TERRA) Lat,Lon (TERRA) SZA (TERRA ) Distance(km) Time Diff (sec)
1 04/12/2025 17:14:10 -77.37, 101.73 111.66 04/12/2025 17:14:22 -77.39, 101.83 111.65 2.73 12
2 04/12/2025 18:04:55 77.34, -90.77 68.29 04/12/2025 18:03:43 77.31, -90.80 68.27 2.88 72
3 04/15/2025 03:35:43 77.41, 126.26 67.50 04/15/2025 03:36:20 77.39, 126.30 67.48 1.93 37
4 04/15/2025 04:26:25 -77.34, -66.09 112.59 04/15/2025 04:25:40 -77.38, -66.09 112.55 4.36 45
5 04/17/2025 13:57:13 -77.41, 150.91 113.35 04/17/2025 13:58:17 -77.42, 150.89 113.35 1.12 64
6 04/17/2025 14:47:58 77.38, -41.61 66.60 04/17/2025 14:47:37 77.38, -41.62 66.60 0.27 21
7 04/20/2025 01:09:27 -77.39, -17.00 114.23 04/20/2025 01:09:32 -77.43, -16.96 114.20 3.60 5
8 04/20/2025 02:00:05 77.06, 151.81 65.44 04/20/2025 01:58:57 77.14, 149.61 65.50 55.24 68
9 04/22/2025 11:30:59 77.42, 7.58 64.98 04/22/2025 11:31:27 77.43, 7.52 64.99 1.99 28
10 04/22/2025 12:21:42 -77.38, 175.05 115.07 04/22/2025 12:20:48 -77.39, 175.03 115.07 0.73 54
11 04/24/2025 21:52:29 -77.45, 32.12 115.80 04/24/2025 21:53:22 -77.46, 32.12 115.79 1.47 53



Historial Predications of SNOs between FY3D and TERRA
